This demonstration page uses our WeatherBlox Daily Observations layout. Learn more.

Left ArrowRight Arrow

36.17497, -115.13722

Hourly Observations for April 18, 2020

Temp ( °F °C ) Dew Point ( °F °C ) Humidity (%) Winds ( mph kmh ) Pressure ( in mb ) Visibility ( mi km ) Precip ( " mm )
12:53 am 00:53 Clear 62 16.7 39 3.9 43 43 NNW 12 19 29.86 1011 10 16 N/A
1:53 am 01:53 Clear 61 16.1 39 3.9 44 44 NW 12 19 29.86 1011 10 16 N/A
2:53 am 02:53 Clear 60 15.6 37 2.8 42 42 NW 8 13 29.86 1011 10 16 N/A
3:53 am 03:53 Clear 59 15 37 2.8 44 44 W 6 9 29.86 1011 10 16 N/A
4:53 am 04:53 Clear 59 15 37 2.8 44 44 N N/A 29.87 1011 10 16 N/A
5:53 am 05:53 Clear 57 13.9 37 2.8 47 47 N N/A 29.88 1012 10 16 N/A
6:53 am 06:53 Sunny 59 15 37 2.8 44 44 NNE 5 7 29.90 1013 10 16 N/A
7:53 am 07:53 Sunny 61 16.1 38 3.3 43 43 WNW 5 7 29.92 1013 10 16 N/A
8:53 am 08:53 Sunny 64 17.8 38 3.3 38 38 NNE 6 9 29.94 1014 10 16 N/A
9:53 am 09:53 Mostly Sunny 65 18.3 39 3.9 39 39 VRB 5 7 29.94 1014 10 16 N/A
10:53 am 10:53 Sunny 67 19.4 39 3.9 36 36 VRB 3 6 29.95 1014 10 16 N/A
11:53 am 11:53 Sunny 68 20 38 3.3 33 33 S 3 6 29.94 1014 10 16 N/A
12:53 pm 12:53 Partly Cloudy 69 20.6 37 2.8 31 31 W 21 33 29.92 1013 10 16 N/A
1:53 pm 13:53 Mostly Cloudy 69 20.6 37 2.8 31 31 WSW 15 24 29.92 1013 10 16 0.00 0.00
2:53 pm 14:53 Partly Cloudy 71 21.7 39 3.9 31 31 VRB 6 9 29.89 1012 10 16 N/A
3:53 pm 15:53 Mostly Sunny 72 22.2 36 2.2 27 27 VRB 5 7 29.88 1012 10 16 N/A
4:53 pm 16:53 Mostly Sunny 73 22.8 36 2.2 26 26 SW 13 20 29.86 1011 10 16 N/A
5:53 pm 17:53 Sunny 72 22.2 37 2.8 28 28 N N/A 29.86 1011 10 16 N/A
6:53 pm 18:53 Sunny 72 22.2 37 2.8 28 28 S 8 13 29.87 1011 10 16 N/A
7:53 pm 19:53 Clear 71 21.7 36 2.2 28 28 WSW 8 13 29.88 1012 10 16 N/A
8:53 pm 20:53 Clear 69 20.6 37 2.8 31 31 W 8 13 29.90 1013 10 16 N/A
9:53 pm 21:53 Clear 67 19.4 38 3.3 35 35 W 3 6 29.92 1013 10 16 N/A
10:53 pm 22:53 Clear 65 18.3 38 3.3 37 37 N N/A 29.92 1013 10 16 N/A
11:53 pm 23:53 Clear 63 17.2 38 3.3 40 40 NNW 3 6 29.93 1013 10 16 N/A

Powered by AerisWeather